| time (UTC) | temp F | wind direction | speed MPH | gust MPH | rain 1hr in | rain 24hr in | rain mn in | humidity % | barometer mb |
| 20260901114856 | 59 | 104 | 1.0 | 2.0 | 0.00 | 0.00 | 0.00 | 89 | 1017.3 |
| 20260901114354 | 58 | 311 | 1.0 | 4.0 | 0.00 | 0.00 | 0.00 | 90 | 1017.3 |
| 20260901114245 | 58 | 283 | 0.0 | 4.0 | 0.00 | 0.00 | 0.00 | 89 | 1017.6 |
| 20260901113354 | 58 | 307 | 2.0 | 4.0 | 0.00 | 0.00 | 0.00 | 90 | 1017.5 |
| 20260901112852 | 57 | 295 | 1.0 | 4.0 | 0.00 | 0.00 | 0.00 | 91 | 1017.3 |
| 20260901112758 | 57 | 338 | 2.0 | 2.0 | 0.00 | 0.00 | 0.00 | 95 | 1017.4 |
| 20260901111848 | 56 | 217 | 0.0 | 3.0 | 0.00 | 0.00 | 0.00 | 97 | 1017.4 |
| 20260901111344 | 56 | 229 | 1.0 | 3.0 | 0.00 | 0.00 | 0.00 | 98 | 1017.4 |
| 20260901110846 | 55 | 93 | 2.0 | 2.0 | 0.00 | 0.00 | 0.00 | 98 | 1017.1 |
| 20260901110345 | 55 | 193 | 0.0 | 2.0 | 0.00 | 0.00 | 0.00 | 98 | 1017.2 |
| 20260901105844 | 54 | 96 | 1.0 | 2.0 | 0.00 | 0.00 | 0.00 | 99 | 1017.0 |
| 20260901105344 | 54 | 129 | 0.0 | 3.0 | 0.00 | 0.00 | 0.00 | 99 | 1017.2 |
| 20260901104844 | 53 | 308 | 2.0 | 3.0 | 0.00 | 0.00 | 0.00 | 99 | 1017.3 |
| 20260901104344 | 54 | 313 | 2.0 | 2.0 | 0.00 | 0.00 | 0.00 | 99 | 1016.9 |
| 20260901103842 | 53 | 317 | 0.0 | 2.0 | 0.00 | 0.00 | 0.00 | 99 | 1017.0 |
| 20260901103335 | 53 | 333 | 0.0 | 2.0 | 0.00 | 0.00 | 0.00 | 99 | 1016.9 |
| 20260901102958 | 52 | 298 | 0.0 | 2.0 | 0.00 | 0.00 | 0.00 | 99 | 1016.8 |
| 20260901101829 | 51 | 47 | 0.0 | 2.0 | 0.00 | 0.00 | 0.00 | 99 | 1016.9 |
| 20260901101328 | 51 | 28 | 1.0 | 2.0 | 0.00 | 0.00 | 0.00 | 99 | 1016.8 |
| 20260901100831 | 51 | 85 | 1.0 | 2.0 | 0.00 | 0.00 | 0.00 | 99 | 1016.9 |
| 20260901100341 | 51 | 72 | 0.0 | 2.0 | 0.00 | 0.00 | 0.00 | 99 | 1016.8 |
| 20260901100228 | 51 | 110 | 1.0 | 2.0 | 0.00 | 0.00 | 0.00 | 99 | 1016.8 |
| 20260901095325 | 51 | 99 | 0.0 | 2.0 | 0.00 | 0.00 | 0.00 | 99 | 1016.9 |
| 20260901094822 | 51 | 30 | 0.0 | 2.0 | 0.00 | 0.00 | 0.00 | 98 | 1016.8 |
| 20260901094321 | 52 | 25 | 0.0 | 2.0 | 0.00 | 0.00 | 0.00 | 99 | 1016.8 |
| 20260901093822 | 52 | 324 | 1.0 | 2.0 | 0.00 | 0.00 | 0.00 | 99 | 1016.6 |
| 20260901093332 | 52 | 315 | 2.0 | 2.0 | 0.00 | 0.00 | 0.00 | 99 | 1016.6 |
| 20260901092819 | 52 | 330 | 1.0 | 1.0 | 0.00 | 0.00 | 0.00 | 99 | 1016.6 |
| 20260901092317 | 52 | 304 | 0.0 | 2.0 | 0.00 | 0.00 | 0.00 | 99 | 1016.5 |
| 20260901091818 | 52 | 290 | 0.0 | 2.0 | 0.00 | 0.00 | 0.00 | 99 | 1016.5 |
| 20260901091316 | 52 | 290 | 0.0 | 1.0 | 0.00 | 0.00 | 0.00 | 99 | 1016.7 |
| 20260901090814 | 52 | 25 | 0.0 | 1.0 | 0.00 | 0.00 | 0.00 | 99 | 1016.6 |
| 20260901090311 | 52 | 199 | 0.0 | 1.0 | 0.00 | 0.00 | 0.00 | 99 | 1016.7 |
| 20260901085811 | 53 | 110 | 0.0 | 2.0 | 0.00 | 0.00 | 0.00 | 99 | 1016.3 |
| 20260901085310 | 53 | 249 | 0.0 | 2.0 | 0.00 | 0.00 | 0.00 | 99 | 1016.5 |
| 20260901084811 | 53 | 264 | 0.0 | 2.0 | 0.00 | 0.00 | 0.00 | 99 | 1016.6 |
| 20260901084311 | 53 | 290 | 2.0 | 2.0 | 0.00 | 0.00 | 0.00 | 99 | 1016.6 |
| 20260901083808 | 52 | 346 | 0.0 | 2.0 | 0.00 | 0.00 | 0.00 | 99 | 1016.6 |
| 20260901083309 | 52 | 284 | 0.0 | 2.0 | 0.00 | 0.00 | 0.00 | 99 | 1016.6 |
| 20260901083218 | 52 | 243 | 1.0 | 2.0 | 0.00 | 0.00 | 0.00 | 99 | 1016.4 |
| 20260901082306 | 52 | 178 | 0.0 | 2.0 | 0.00 | 0.00 | 0.00 | 99 | 1016.6 |
| 20260901081805 | 52 | 205 | 0.0 | 1.0 | 0.00 | 0.00 | 0.00 | 99 | 1016.5 |
| 20260901081304 | 52 | 217 | 0.0 | 2.0 | 0.00 | 0.00 | 0.00 | 99 | 1016.4 |
| 20260901081149 | 52 | 193 | 0.0 | 2.0 | 0.00 | 0.00 | 0.00 | 99 | 1016.3 |
| 20260901080303 | 52 | 90 | 0.0 | 2.0 | 0.00 | 0.00 | 0.00 | 99 | 1016.5 |
| 20260901075802 | 51 | 25 | 0.0 | 2.0 | 0.00 | 0.00 | 0.00 | 99 | 1016.4 |
| 20260901075644 | 51 | 64 | 0.0 | 0.0 | 0.00 | 0.00 | 0.00 | 99 | 1016.4 |
| 20260901075151 | 51 | 92 | 0.0 | 1.0 | 0.00 | 0.00 | 0.00 | 99 | 1016.3 |
| 20260901074259 | 51 | 94 | 0.0 | 1.0 | 0.00 | 0.00 | 0.00 | 99 | 1016.3 |
| 20260901073757 | 51 | 341 | 0.0 | 1.0 | 0.00 | 0.00 | 0.00 | 99 | 1016.5 |
| 20260901073258 | 51 | 132 | 0.0 | 1.0 | 0.00 | 0.00 | 0.00 | 98 | 1016.2 |
| 20260901072755 | 51 | 4 | 0.0 | 1.0 | 0.00 | 0.00 | 0.00 | 98 | 1016.2 |
| 20260901072252 | 51 | 15 | 0.0 | 1.0 | 0.00 | 0.00 | 0.00 | 98 | 1016.3 |
| 20260901071751 | 51 | 37 | 0.0 | 2.0 | 0.00 | 0.00 | 0.00 | 98 | 1016.2 |
| 20260901071252 | 51 | 12 | 0.0 | 2.0 | 0.00 | 0.00 | 0.00 | 98 | 1016.3 |
| 20260901070751 | 51 | 328 | 1.0 | 2.0 | 0.00 | 0.00 | 0.00 | 98 | 1016.4 |
| 20260901070631 | 51 | 352 | 0.0 | 2.0 | 0.00 | 0.00 | 0.00 | 98 | 1016.4 |
| 20260901065748 | 51 | 331 | 1.0 | 2.0 | 0.00 | 0.00 | 0.00 | 98 | 1016.3 |
| 20260901065247 | 52 | 7 | 0.0 | 2.0 | 0.00 | 0.00 | 0.00 | 98 | 1016.4 |
| 20260901064747 | 52 | 301 | 0.0 | 2.0 | 0.00 | 0.00 | 0.00 | 98 | 1016.5 |
| 20260901064246 | 52 | 348 | 0.0 | 0.0 | 0.00 | 0.00 | 0.00 | 98 | 1016.5 |
| 20260901063743 | 52 | 35 | 0.0 | 1.0 | 0.00 | 0.00 | 0.00 | 98 | 1016.2 |
| 20260901063241 | 52 | 92 | 0.0 | 1.0 | 0.00 | 0.00 | 0.00 | 98 | 1016.4 |
| 20260901062740 | 52 | 129 | 0.0 | 2.0 | 0.00 | 0.00 | 0.00 | 98 | 1016.4 |
| 20260901062634 | 52 | 91 | 0.0 | 2.0 | 0.00 | 0.01 | 0.00 | 98 | 1016.5 |
| 20260901061734 | 52 | 115 | 2.0 | 2.0 | 0.00 | 0.01 | 0.00 | 98 | 1016.6 |
| 20260901061233 | 51 | 102 | 0.0 | 2.0 | 0.00 | 0.01 | 0.00 | 98 | 1016.6 |
| 20260901061149 | 51 | 24 | 0.0 | 1.0 | 0.00 | 0.01 | 0.00 | 98 | 1016.6 |
| 20260901060222 | 51 | 35 | 0.0 | 1.0 | 0.00 | 0.01 | 0.00 | 98 | 1016.5 |
| 20260901055721 | 51 | 37 | 0.0 | 1.0 | 0.00 | 0.01 | 0.00 | 98 | 1016.5 |
| 20260901055221 | 51 | 25 | 0.0 | 1.0 | 0.00 | 0.01 | 0.00 | 98 | 1016.3 |
| 20260901054721 | 51 | 34 | 0.0 | 1.0 | 0.00 | 0.01 | 0.00 | 98 | 1016.5 |
| 20260901054222 | 51 | 78 | 0.0 | 1.0 | 0.00 | 0.01 | 0.00 | 98 | 1016.5 |
| 20260901053719 | 51 | 37 | 0.0 | 1.0 | 0.00 | 0.01 | 0.00 | 98 | 1016.6 |
| 20260901053221 | 51 | 92 | 0.0 | 1.0 | 0.00 | 0.01 | 0.00 | 98 | 1016.4 |
| 20260901052715 | 51 | 0 | 0.0 | 1.0 | 0.00 | 0.01 | 0.00 | 98 | 1016.4 |
| 20260901052607 | 51 | 25 | 0.0 | 1.0 | 0.00 | 0.01 | 0.00 | 97 | 1016.4 |
| 20260901051712 | 51 | 119 | 1.0 | 1.0 | 0.00 | 0.01 | 0.00 | 98 | 1016.2 |
| 20260901051615 | 51 | 25 | 0.0 | 0.0 | 0.00 | 0.02 | 0.00 | 98 | 1016.5 |
| 20260901050718 | 52 | 81 | 0.0 | 0.0 | 0.00 | 0.02 | 0.00 | 97 | 1016.5 |
| 20260901050207 | 52 | 92 | 0.0 | 0.0 | 0.00 | 0.02 | 0.00 | 97 | 1016.3 |
| 20260901045833 | 52 | 92 | 0.0 | 0.0 | 0.00 | 0.02 | 0.00 | 97 | 1016.6 |
| 20260901044653 | 52 | 88 | 0.0 | 2.0 | 0.00 | 0.03 | 0.00 | 97 | 1016.6 |
| 20260901044154 | 52 | 29 | 0.0 | 1.0 | 0.00 | 0.03 | 0.00 | 97 | 1016.4 |
| 20260901043650 | 53 | 12 | 0.0 | 2.0 | 0.00 | 0.03 | 0.00 | 97 | 1016.6 |
| 20260901043202 | 53 | 92 | 0.0 | 2.0 | 0.00 | 0.03 | 0.00 | 97 | 1016.6 |
| 20260901042820 | 53 | 41 | 1.0 | 2.0 | 0.00 | 0.03 | 0.00 | 97 | 1016.6 |
| 20260901041627 | 53 | 246 | 2.0 | 2.0 | 0.00 | 0.03 | 0.00 | 97 | 1016.6 |
| 20260901041124 | 53 | 331 | 0.0 | 2.0 | 0.00 | 0.03 | 0.00 | 97 | 1016.6 |
| 20260901040624 | 53 | 19 | 0.0 | 1.0 | 0.00 | 0.03 | 0.00 | 97 | 1016.5 |
| 20260901040119 | 53 | 19 | 0.0 | 2.0 | 0.00 | 0.03 | 0.00 | 97 | 1016.5 |
| 20260901035630 | 53 | 122 | 0.0 | 2.0 | 0.00 | 0.03 | 0.00 | 97 | 1016.7 |
| 20260901035127 | 53 | 243 | 2.0 | 3.0 | 0.00 | 0.03 | 0.00 | 97 | 1016.6 |
| 20260901034608 | 53 | 284 | 0.0 | 3.0 | 0.00 | 0.03 | 0.00 | 97 | 1016.4 |
| 20260901034107 | 53 | 259 | 0.0 | 2.0 | 0.00 | 0.03 | 0.00 | 97 | 1016.4 |
| 20260901033607 | 53 | 226 | 0.0 | 2.0 | 0.00 | 0.03 | 0.00 | 97 | 1016.4 |
| 20260901033104 | 53 | 284 | 0.0 | 2.0 | 0.00 | 0.05 | 0.00 | 97 | 1016.4 |
| 20260901032604 | 54 | 244 | 1.0 | 2.0 | 0.00 | 0.05 | 0.00 | 97 | 1016.5 |
| 20260901032103 | 54 | 296 | 1.0 | 3.0 | 0.00 | 0.05 | 0.00 | 97 | 1016.3 |
| 20260901031603 | 54 | 279 | 0.0 | 3.0 | 0.00 | 0.06 | 0.00 | 97 | 1016.2 |
| 20260901031059 | 54 | 269 | 1.0 | 2.0 | 0.00 | 0.06 | 0.00 | 97 | 1016.4 |
| 20260901030557 | 54 | 259 | 2.0 | 2.0 | 0.00 | 0.06 | 0.00 | 97 | 1016.3 |
| 20260901030526 | 54 | 254 | 2.0 | 2.0 | 0.00 | 0.06 | 0.00 | 97 | 1016.3 |
| 20260901025546 | 54 | 272 | 0.0 | 2.0 | 0.00 | 0.06 | 0.06 | 96 | 1016.4 |
| 20260901025042 | 54 | 297 | 0.0 | 2.0 | 0.00 | 0.06 | 0.06 | 96 | 1016.3 |
| 20260901024539 | 54 | 255 | 0.0 | 2.0 | 0.00 | 0.06 | 0.06 | 97 | 1016.4 |
| 20260901024037 | 54 | 256 | 2.0 | 3.0 | 0.00 | 0.07 | 0.06 | 97 | 1016.4 |
| 20260901023928 | 54 | 279 | 0.0 | 3.0 | 0.00 | 0.07 | 0.06 | 96 | 1016.3 |
| 20260901023032 | 54 | 233 | 2.0 | 2.0 | 0.00 | 0.09 | 0.06 | 96 | 1016.3 |
| 20260901022524 | 54 | 178 | 0.0 | 0.0 | 0.00 | 0.09 | 0.06 | 96 | 1016.2 |
| 20260901022020 | 54 | 12 | 0.0 | 0.0 | 0.00 | 0.09 | 0.06 | 96 | 1016.4 |
| 20260901021522 | 54 | 104 | 0.0 | 0.0 | 0.00 | 0.11 | 0.06 | 95 | 1016.3 |
| 20260901021155 | 54 | 19 | 0.0 | 1.0 | 0.00 | 0.11 | 0.06 | 95 | 1016.3 |
| 20260901021110 | 54 | 117 | 0.0 | 0.0 | 0.00 | 0.11 | 0.06 | 95 | 1016.1 |
| 20260901015505 | 55 | 19 | 0.0 | 2.0 | 0.00 | 0.11 | 0.06 | 95 | 1016.4 |
| 20260901015006 | 54 | 335 | 0.0 | 2.0 | 0.00 | 0.12 | 0.06 | 95 | 1016.3 |
| 20260901014504 | 55 | 329 | 1.0 | 2.0 | 0.00 | 0.12 | 0.06 | 95 | 1016.4 |
| 20260901014005 | 55 | 0 | 0.0 | 1.0 | 0.00 | 0.12 | 0.06 | 95 | 1016.3 |
| 20260901013502 | 55 | 117 | 0.0 | 1.0 | 0.00 | 0.12 | 0.06 | 94 | 1016.2 |
| 20260901012957 | 55 | 187 | 0.0 | 0.0 | 0.00 | 0.12 | 0.06 | 94 | 1016.4 |
| 20260901012458 | 55 | 279 | 0.0 | 1.0 | 0.00 | 0.12 | 0.06 | 94 | 1016.3 |
| 20260901012000 | 56 | 279 | 0.0 | 1.0 | 0.00 | 0.12 | 0.06 | 94 | 1016.4 |
| 20260901011457 | 56 | 290 | 0.0 | 1.0 | 0.00 | 0.12 | 0.06 | 93 | 1016.5 |
| 20260901010954 | 56 | 30 | 0.0 | 1.0 | 0.00 | 0.12 | 0.06 | 93 | 1016.3 |
| 20260901010450 | 56 | 16 | 0.0 | 1.0 | 0.00 | 0.12 | 0.06 | 92 | 1016.2 |
| 20260901005951 | 56 | 308 | 0.0 | 1.0 | 0.00 | 0.12 | 0.06 | 92 | 1016.3 |
| 20260901005926 | 57 | 318 | 0.0 | 2.0 | 0.00 | 0.12 | 0.06 | 92 | 1016.2 |
| 20260901004946 | 57 | 314 | 0.0 | 2.0 | 0.00 | 0.12 | 0.06 | 92 | 1016.2 |
| 20260901004445 | 57 | 318 | 0.0 | 1.0 | 0.00 | 0.13 | 0.06 | 92 | 1016.2 |
| 20260901003943 | 57 | 291 | 0.0 | 2.0 | 0.00 | 0.13 | 0.06 | 92 | 1016.2 |
| 20260901003443 | 57 | 17 | 0.0 | 2.0 | 0.00 | 0.13 | 0.06 | 92 | 1016.0 |
| 20260901002943 | 58 | 23 | 1.0 | 2.0 | 0.00 | 0.13 | 0.06 | 92 | 1016.1 |
| 20260901002933 | 58 | 19 | 0.0 | 1.0 | 0.00 | 0.18 | 0.06 | 91 | 1016.1 |
| 20260901002330 | 58 | 25 | 0.0 | 1.0 | 0.00 | 0.21 | 0.06 | 91 | 1016.2 |
| 20260901001435 | 58 | 75 | 0.0 | 1.0 | 0.00 | 0.21 | 0.06 | 89 | 1015.9 |
| 20260901000924 | 59 | 7 | 0.0 | 1.0 | 0.00 | 0.21 | 0.06 | 89 | 1015.9 |
| 20260901000414 | 59 | 37 | 0.0 | 1.0 | 0.00 | 0.21 | 0.06 | 87 | 1016.0 |
| 20260831235914 | 59 | 87 | 0.0 | 1.0 | 0.00 | 0.21 | 0.06 | 85 | 1015.9 |
| 20260831235743 | 60 | 16 | 0.0 | 1.0 | 0.00 | 0.21 | 0.06 | 85 | 1016.0 |
| 20260831234912 | 60 | 353 | 0.0 | 1.0 | 0.00 | 0.21 | 0.06 | 84 | 1015.9 |
| 20260831234412 | 60 | 297 | 0.0 | 1.0 | 0.00 | 0.21 | 0.06 | 83 | 1015.7 |
| 20260831234253 | 61 | 308 | 0.0 | 1.0 | 0.00 | 0.21 | 0.06 | 81 | 1015.7 |
| 20260831233411 | 61 | 290 | 0.0 | 1.0 | 0.00 | 0.21 | 0.06 | 81 | 1015.6 |
| 20260831232912 | 62 | 32 | 0.0 | 1.0 | 0.00 | 0.23 | 0.06 | 79 | 1015.6 |
| 20260831232411 | 62 | 0 | 0.0 | 2.0 | 0.00 | 0.23 | 0.06 | 78 | 1015.6 |
| 20260831232241 | 62 | 341 | 0.0 | 3.0 | 0.00 | 0.23 | 0.06 | 77 | 1015.5 |
| 20260831231420 | 63 | 284 | 0.0 | 3.0 | 0.00 | 0.23 | 0.06 | 78 | 1015.5 |
| 20260831230906 | 63 | 273 | 0.0 | 2.0 | 0.00 | 0.23 | 0.06 | 77 | 1015.7 |
| 20260831230400 | 64 | 301 | 0.0 | 1.0 | 0.00 | 0.23 | 0.06 | 77 | 1015.8 |
| 20260831225858 | 64 | 297 | 0.0 | 1.0 | 0.00 | 0.23 | 0.06 | 74 | 1015.3 |
| 20260831225354 | 64 | 217 | 0.0 | 1.0 | 0.00 | 0.23 | 0.06 | 72 | 1015.5 |
| 20260831224853 | 65 | 290 | 0.0 | 1.0 | 0.00 | 0.23 | 0.06 | 71 | 1015.2 |
| 20260831224350 | 65 | 350 | 0.0 | 1.0 | 0.00 | 0.23 | 0.06 | 70 | 1015.0 |
| 20260831223848 | 66 | 318 | 0.0 | 1.0 | 0.00 | 0.23 | 0.06 | 69 | 1015.3 |
| 20260831223350 | 66 | 297 | 0.0 | 2.0 | 0.00 | 0.23 | 0.06 | 68 | 1015.3 |
| 20260831222845 | 66 | 257 | 0.0 | 2.0 | 0.00 | 0.23 | 0.06 | 67 | 1015.3 |
| 20260831222345 | 67 | 272 | 1.0 | 2.0 | 0.00 | 0.23 | 0.06 | 65 | 1015.0 |
| 20260831222010 | 67 | 259 | 2.0 | 2.0 | 0.00 | 0.23 | 0.06 | 64 | 1015.2 |
| 20260831221232 | 68 | 230 | 2.0 | 2.0 | 0.00 | 0.23 | 0.06 | 62 | 1015.1 |
| 20260831220345 | 68 | 267 | 2.0 | 3.0 | 0.00 | 0.23 | 0.06 | 62 | 1015.3 |
| 20260831215836 | 68 | 277 | 1.0 | 3.0 | 0.00 | 0.23 | 0.06 | 62 | 1015.1 |
| 20260831215341 | 68 | 250 | 0.0 | 3.0 | 0.00 | 0.23 | 0.06 | 61 | 1015.4 |
| 20260831214836 | 68 | 276 | 2.0 | 6.0 | 0.00 | 0.23 | 0.06 | 60 | 1015.3 |
| 20260831214338 | 69 | 285 | 2.0 | 6.0 | 0.00 | 0.23 | 0.06 | 60 | 1015.5 |
| 20260831213828 | 69 | 237 | 3.0 | 5.0 | 0.00 | 0.23 | 0.06 | 58 | 1015.3 |
| 20260831213325 | 70 | 322 | 2.0 | 8.0 | 0.00 | 0.23 | 0.06 | 58 | 1015.2 |
| 20260831212834 | 69 | 271 | 4.0 | 8.0 | 0.00 | 0.23 | 0.06 | 58 | 1015.4 |
| 20260831212319 | 70 | 295 | 4.0 | 6.0 | 0.00 | 0.23 | 0.06 | 57 | 1015.2 |
| 20260831211819 | 70 | 268 | 4.0 | 6.0 | 0.00 | 0.23 | 0.06 | 56 | 1015.4 |
| 20260831211320 | 70 | 246 | 3.0 | 7.0 | 0.00 | 0.23 | 0.06 | 57 | 1015.3 |
| 20260831210818 | 70 | 269 | 5.0 | 8.0 | 0.00 | 0.23 | 0.06 | 56 | 1015.2 |
| 20260831210315 | 70 | 297 | 3.0 | 8.0 | 0.00 | 0.23 | 0.06 | 57 | 1015.5 |
| 20260831210157 | 71 | 263 | 4.0 | 8.0 | 0.00 | 0.23 | 0.06 | 54 | 1015.4 |
| 20260831205315 | 70 | 259 | 4.0 | 11.0 | 0.00 | 0.23 | 0.06 | 56 | 1015.4 |
| 20260831205206 | 70 | 268 | 4.0 | 11.0 | 0.00 | 0.23 | 0.06 | 55 | 1015.2 |
| 20260831204311 | 71 | 277 | 4.0 | 9.0 | 0.00 | 0.23 | 0.06 | 56 | 1015.2 |
| 20260831203806 | 70 | 264 | 4.0 | 9.0 | 0.00 | 0.23 | 0.06 | 56 | 1015.3 |
| 20260831203306 | 70 | 259 | 6.0 | 9.0 | 0.00 | 0.23 | 0.06 | 55 | 1015.4 |
| 20260831203155 | 71 | 233 | 7.0 | 9.0 | 0.00 | 0.23 | 0.06 | 56 | 1015.5 |
| 20260831202306 | 70 | 252 | 4.0 | 8.0 | 0.00 | 0.23 | 0.06 | 57 | 1015.4 |
| 20260831201759 | 71 | 244 | 6.0 | 8.0 | 0.00 | 0.23 | 0.06 | 57 | 1015.3 |
| 20260831201301 | 71 | 265 | 5.0 | 9.0 | 0.00 | 0.23 | 0.06 | 56 | 1015.3 |
| 20260831200759 | 71 | 296 | 6.0 | 9.0 | 0.00 | 0.23 | 0.06 | 55 | 1015.2 |
| 20260831200259 | 71 | 237 | 4.0 | 12.0 | 0.00 | 0.23 | 0.06 | 57 | 1015.3 |
| 20260831195800 | 70 | 231 | 5.0 | 12.0 | 0.00 | 0.23 | 0.06 | 56 | 1015.4 |
| 20260831195306 | 71 | 261 | 6.0 | 9.0 | 0.00 | 0.23 | 0.06 | 55 | 1015.4 |
| 20260831195122 | 71 | 268 | 7.0 | 10.0 | 0.00 | 0.23 | 0.06 | 56 | 1015.5 |
| 20260831194242 | 70 | 237 | 5.0 | 11.0 | 0.00 | 0.23 | 0.06 | 57 | 1015.6 |
| 20260831194121 | 70 | 230 | 6.0 | 12.0 | 0.00 | 0.23 | 0.06 | 58 | 1015.7 |
| 20260831193235 | 70 | 277 | 2.0 | 12.0 | 0.00 | 0.23 | 0.06 | 59 | 1015.7 |
| 20260831192735 | 70 | 279 | 5.0 | 9.0 | 0.00 | 0.23 | 0.06 | 57 | 1015.6 |
| 20260831192233 | 70 | 280 | 5.0 | 10.0 | 0.00 | 0.23 | 0.06 | 56 | 1015.5 |
| 20260831191732 | 70 | 294 | 3.0 | 10.0 | 0.00 | 0.23 | 0.06 | 58 | 1015.4 |
| 20260831191228 | 70 | 264 | 6.0 | 10.0 | 0.00 | 0.23 | 0.06 | 57 | 1015.5 |
| 20260831190723 | 71 | 241 | 5.0 | 10.0 | 0.00 | 0.23 | 0.06 | 56 | 1015.4 |
| 20260831190607 | 71 | 276 | 5.0 | 9.0 | 0.00 | 0.23 | 0.06 | 55 | 1015.3 |
| 20260831185723 | 70 | 308 | 6.0 | 14.0 | 0.00 | 0.23 | 0.06 | 58 | 1015.3 |
| 20260831185211 | 70 | 246 | 8.0 | 14.0 | 0.00 | 0.23 | 0.06 | 56 | 1015.2 |
| 20260831184707 | 71 | 272 | 8.0 | 14.0 | 0.00 | 0.23 | 0.06 | 57 | 1015.3 |
| 20260831184219 | 71 | 298 | 4.0 | 11.0 | 0.00 | 0.23 | 0.06 | 58 | 1015.2 |
| 20260831183657 | 70 | 151 | 2.0 | 12.0 | 0.00 | 0.23 | 0.06 | 62 | 1015.1 |
| 20260831183159 | 70 | 219 | 7.0 | 12.0 | 0.00 | 0.23 | 0.06 | 56 | 1015.2 |
| 20260831182659 | 70 | 258 | 4.0 | 11.0 | 0.00 | 0.23 | 0.06 | 56 | 1015.3 |
| 20260831182154 | 70 | 291 | 3.0 | 10.0 | 0.00 | 0.23 | 0.06 | 59 | 1015.2 |
| 20260831181653 | 71 | 274 | 5.0 | 8.0 | 0.00 | 0.23 | 0.06 | 56 | 1015.2 |
| 20260831181601 | 70 | 291 | 4.0 | 8.0 | 0.00 | 0.23 | 0.06 | 58 | 1015.2 |
| 20260831180652 | 70 | 306 | 4.0 | 8.0 | 0.00 | 0.23 | 0.06 | 57 | 1015.1 |
| 20260831180147 | 70 | 269 | 4.0 | 9.0 | 0.00 | 0.23 | 0.06 | 59 | 1015.1 |
| 20260831175651 | 69 | 314 | 6.0 | 9.0 | 0.00 | 0.23 | 0.06 | 60 | 1015.1 |
| 20260831175640 | 69 | 270 | 6.0 | 11.0 | 0.00 | 0.23 | 0.06 | 62 | 1015.0 |
| 20260831175047 | 69 | 286 | 5.0 | 11.0 | 0.00 | 0.23 | 0.06 | 60 | 1015.1 |
| 20260831174139 | 69 | 231 | 4.0 | 14.0 | 0.00 | 0.23 | 0.06 | 60 | 1015.0 |
| 20260831174033 | 69 | 302 | 7.0 | 14.0 | 0.00 | 0.23 | 0.06 | 60 | 1015.0 |
| 20260831173134 | 69 | 269 | 4.0 | 15.0 | 0.00 | 0.23 | 0.06 | 64 | 1015.1 |
| 20260831172632 | 69 | 286 | 5.0 | 15.0 | 0.00 | 0.23 | 0.06 | 60 | 1015.1 |
| 20260831172129 | 69 | 299 | 9.0 | 12.0 | 0.00 | 0.23 | 0.06 | 59 | 1015.0 |
| 20260831171629 | 69 | 274 | 6.0 | 13.0 | 0.00 | 0.23 | 0.06 | 59 | 1015.0 |
| 20260831171128 | 69 | 283 | 7.0 | 13.0 | 0.00 | 0.23 | 0.06 | 57 | 1014.9 |
| 20260831170624 | 69 | 310 | 7.0 | 13.0 | 0.00 | 0.23 | 0.06 | 58 | 1015.1 |
| 20260831170135 | 69 | 297 | 4.0 | 13.0 | 0.00 | 0.23 | 0.06 | 61 | 1015.0 |
| 20260831165621 | 69 | 239 | 5.0 | 11.0 | 0.00 | 0.23 | 0.06 | 59 | 1015.0 |
| 20260831165117 | 69 | 273 | 7.0 | 14.0 | 0.00 | 0.23 | 0.06 | 58 | 1015.2 |
| 20260831164610 | 68 | 293 | 7.0 | 14.0 | 0.00 | 0.23 | 0.06 | 60 | 1015.1 |
| 20260831164104 | 68 | 278 | 6.0 | 11.0 | 0.00 | 0.23 | 0.06 | 60 | 1014.9 |
| 20260831163601 | 68 | 290 | 3.0 | 11.0 | 0.00 | 0.23 | 0.06 | 60 | 1014.9 |
| 20260831163059 | 68 | 278 | 4.0 | 11.0 | 0.00 | 0.23 | 0.06 | 62 | 1014.9 |
| 20260831163015 | 68 | 264 | 4.0 | 11.0 | 0.00 | 0.23 | 0.06 | 60 | 1015.0 |
| 20260831162051 | 68 | 305 | 5.0 | 11.0 | 0.00 | 0.23 | 0.06 | 59 | 1014.8 |
| 20260831161543 | 67 | 295 | 3.0 | 11.0 | 0.00 | 0.23 | 0.06 | 59 | 1014.8 |
| 20260831161045 | 67 | 303 | 6.0 | 11.0 | 0.00 | 0.23 | 0.06 | 62 | 1014.8 |
| 20260831160540 | 67 | 272 | 4.0 | 9.0 | 0.00 | 0.23 | 0.06 | 60 | 1014.7 |
| 20260831160040 | 67 | 305 | 4.0 | 12.0 | 0.00 | 0.23 | 0.06 | 61 | 1014.9 |
| 20260831155538 | 67 | 294 | 5.0 | 12.0 | 0.00 | 0.23 | 0.06 | 58 | 1014.9 |
| 20260831155033 | 68 | 296 | 6.0 | 11.0 | 0.00 | 0.23 | 0.06 | 60 | 1014.8 |
| 20260831154531 | 67 | 316 | 3.0 | 11.0 | 0.00 | 0.23 | 0.06 | 62 | 1014.8 |
| 20260831154029 | 68 | 268 | 5.0 | 10.0 | 0.00 | 0.23 | 0.06 | 59 | 1014.9 |
| 20260831153530 | 67 | 210 | 5.0 | 10.0 | 0.00 | 0.23 | 0.06 | 62 | 1015.0 |
| 20260831153016 | 67 | 256 | 3.0 | 7.0 | 0.00 | 0.23 | 0.06 | 62 | 1015.0 |
| 20260831152509 | 67 | 300 | 2.0 | 7.0 | 0.00 | 0.23 | 0.06 | 63 | 1015.0 |
| 20260831152007 | 67 | 290 | 5.0 | 9.0 | 0.00 | 0.23 | 0.06 | 62 | 1015.0 |
| 20260831151459 | 66 | 253 | 7.0 | 9.0 | 0.00 | 0.23 | 0.06 | 64 | 1015.0 |
| 20260831150959 | 66 | 279 | 4.0 | 9.0 | 0.00 | 0.23 | 0.06 | 65 | 1014.8 |
| 20260831150456 | 66 | 252 | 3.0 | 7.0 | 0.00 | 0.23 | 0.06 | 63 | 1015.0 |
| 20260831145953 | 66 | 266 | 2.0 | 7.0 | 0.00 | 0.23 | 0.06 | 64 | 1015.1 |
| 20260831145450 | 66 | 237 | 4.0 | 7.0 | 0.00 | 0.23 | 0.06 | 63 | 1015.1 |
| 20260831144944 | 66 | 292 | 3.0 | 8.0 | 0.00 | 0.23 | 0.06 | 66 | 1015.2 |
| 20260831144444 | 66 | 300 | 3.0 | 9.0 | 0.00 | 0.23 | 0.06 | 65 | 1015.1 |
| 20260831143934 | 66 | 310 | 6.0 | 12.0 | 0.00 | 0.23 | 0.06 | 64 | 1015.0 |
| 20260831143430 | 65 | 300 | 2.0 | 12.0 | 0.00 | 0.23 | 0.06 | 65 | 1014.9 |
| 20260831142931 | 66 | 277 | 3.0 | 8.0 | 0.00 | 0.23 | 0.06 | 63 | 1014.9 |
| 20260831142430 | 66 | 227 | 4.0 | 9.0 | 0.00 | 0.23 | 0.06 | 64 | 1015.1 |
| 20260831141927 | 66 | 313 | 6.0 | 9.0 | 0.00 | 0.23 | 0.06 | 65 | 1015.1 |
| 20260831141806 | 66 | 288 | 4.0 | 7.0 | 0.00 | 0.23 | 0.06 | 64 | 1015.0 |
| 20260831141313 | 66 | 320 | 4.0 | 7.0 | 0.00 | 0.23 | 0.06 | 65 | 1014.9 |
| 20260831140421 | 65 | 305 | 6.0 | 7.0 | 0.00 | 0.23 | 0.06 | 65 | 1015.0 |
| 20260831140325 | 65 | 305 | 2.0 | 6.0 | 0.00 | 0.23 | 0.06 | 64 | 1014.7 |
| 20260831135417 | 65 | 320 | 2.0 | 7.0 | 0.00 | 0.23 | 0.06 | 67 | 1014.8 |
| 20260831134907 | 65 | 304 | 6.0 | 7.0 | 0.00 | 0.23 | 0.06 | 69 | 1014.8 |
| 20260831134402 | 64 | 310 | 3.0 | 9.0 | 0.00 | 0.23 | 0.06 | 67 | 1014.8 |
| 20260831133858 | 64 | 308 | 4.0 | 9.0 | 0.00 | 0.23 | 0.06 | 68 | 1014.8 |
| 20260831133353 | 64 | 293 | 6.0 | 9.0 | 0.00 | 0.23 | 0.06 | 71 | 1014.9 |
| 20260831133257 | 63 | 311 | 8.0 | 9.0 | 0.00 | 0.23 | 0.06 | 71 | 1014.9 |
| 20260831132345 | 63 | 299 | 3.0 | 8.0 | 0.00 | 0.23 | 0.06 | 73 | 1014.7 |
| 20260831131845 | 63 | 278 | 3.0 | 6.0 | 0.00 | 0.23 | 0.06 | 74 | 1014.8 |
| 20260831131344 | 62 | 276 | 4.0 | 8.0 | 0.00 | 0.23 | 0.06 | 76 | 1014.8 |
| 20260831130843 | 62 | 305 | 5.0 | 11.0 | 0.00 | 0.23 | 0.06 | 74 | 1014.9 |
| 20260831130343 | 62 | 309 | 6.0 | 11.0 | 0.00 | 0.23 | 0.06 | 74 | 1014.9 |
| 20260831125853 | 62 | 272 | 5.0 | 9.0 | 0.00 | 0.23 | 0.06 | 74 | 1014.7 |
| 20260831125333 | 62 | 306 | 4.0 | 9.0 | 0.00 | 0.23 | 0.06 | 75 | 1014.7 |
| 20260831124830 | 61 | 305 | 4.0 | 10.0 | 0.00 | 0.23 | 0.06 | 76 | 1014.7 |
| 20260831124712 | 61 | 308 | 5.0 | 10.0 | 0.00 | 0.23 | 0.06 | 76 | 1014.8 |
| 20260831123827 | 61 | 290 | 4.0 | 8.0 | 0.00 | 0.23 | 0.06 | 79 | 1014.6 |
| 20260831123323 | 61 | 318 | 3.0 | 10.0 | 0.00 | 0.23 | 0.06 | 79 | 1014.7 |
| 20260831122825 | 61 | 311 | 5.0 | 10.0 | 0.00 | 0.23 | 0.06 | 77 | 1014.7 |
| 20260831122321 | 61 | 267 | 3.0 | 10.0 | 0.00 | 0.23 | 0.06 | 81 | 1014.8 |
| 20260831121824 | 61 | 298 | 7.0 | 8.0 | 0.00 | 0.23 | 0.06 | 78 | 1014.4 |
| 20260831121324 | 60 | 311 | 2.0 | 8.0 | 0.00 | 0.23 | 0.06 | 82 | 1014.5 |
| 20260831120820 | 60 | 318 | 4.0 | 8.0 | 0.00 | 0.23 | 0.06 | 79 | 1014.6 |
| 20260831120313 | 60 | 295 | 3.0 | 7.0 | 0.00 | 0.23 | 0.06 | 81 | 1014.6 |
| 20260831115823 | 60 | 296 | 6.0 | 7.0 | 0.00 | 0.23 | 0.06 | 81 | 1014.5 |